Location: Bailleul
(50.3375°N, 2.8513°E)
Time: 08:58:48
(UTC+00:00)

In-Cosmos 22 - Pass Details

Date: 16 June 2021
Orbit: 785 x 876 km, 81.2° (Epoch: 26 July)

Event Time Altitude Azimuth Distance (km) Brightness Sun altitude
Rises 21:00:52 0° 188° (S) 3,273 6.8 -7.4°
Reaches altitude 10° 21:03:13 10° 188° (S) 2,344 6.1 -7.6°
Maximum altitude 21:08:30 84° 101° (E) 797 4.1 -8.1°
Drops below altitude 10° 21:13:49 10° 13° (NNE) 2,365 7.2 -8.7°
Sets 21:16:13 0° 13° (NNE) 3,305 8.0 -8.9°
